Weather in Maydakovo

Russia / Ivanovo Oblast     56°53′52″N   41°49′08″E
temp.,
°C
wind,
m/s
gust,
m/s
humid.,
%
clouds,
%
prec.,
mm/h
press.,
hPa
HPBL,
m
21 january, fri
fri2100:00−7s61492100 0.1 1005590
03:00−9s61392100 0.2 1005514
06:00−10sse51293100 0.1 1005460
09:00−9sse51294100 0.8 1005484
12:00−8sse51294100 0.8 1005521
15:00−7se51394100 1.7 1004676
18:00−8se61394100 0.8 1004807
21:00−8se61393100 1.7 1004737
22 january, sat
sat2200:00−8se51293100 0.1 1005524
03:00−8se5119499 0.6 1006483
06:00−8se41094100 0.3 1007341
09:00−9ese41095100 0.3 1010290
12:00−7ese51095100 0.4 1011372
15:00−6ese4994100 0.8 1013469
18:00−7ese499595 0.1 1015347
21:00−10ese379694 0.3 1017137
23 january, sun
sun2300:00−11e239880 0.2 101848
03:00−15e229990 0.2 102011
06:00−15se1110085 0.1 10229
09:00−13s1298100 0.1 102545
12:00−9ssw129499 0.0 1027128
15:00−10sw119729 0.1 102910
18:00−17ssw1110075 0.0 10339
21:00−19sse1110099 0.0 10349
24 january, mon
mon2400:00−20s00100100 0.0 10369
03:00−21se11100100 0.0 10379
06:00−22ne11100100 0.0 10389
09:00−21ese11100100 0.0 10399
12:00−11sse129573 0.0 1038102
15:00−10ene119620 0.0 103710
18:00−17ese2210082 0.0 10379
21:00−18ese22100100 0.0 103610
25 january, tue
tue2500:00−18se22100100 0.0 103515
03:00−20sse22100100 0.1 103317
06:00−19sse249951 0.0 103147
09:00−17s389862 0.0 1029112
12:00−11ssw479292 0.0 1027213
15:00−10s399353 0.0 1024315
18:00−11s4129550 0.0 1023263
21:00−13s4119552 0.0 1022242